User: anonymous   Login
Location: Newark
(48.3453°N, 0.5589°E)
Time: 00:04:10
(UTC+00:00)
Language:

Altair - Orbit

View from above orbital plane
View from above orbital plane
View from above satellite
View from above satellite

Ground track
Ground track

The orbit data is extracted from the following two-line orbital elements,

1    50U 60009B   19348.05687351 -.00000106  00000-0 -19090-3 0  9991
2    50  47.2329 339.7806 0112947 130.3940 230.6770 12.20108523647921
Epoch (UTC): 14 December 2019 01:21:53
Eccentricity: 0.0112947
inclination: 47.2329°
perigee height: 1502 km
apogee height: 1682 km
right ascension of ascending node: 339.7806°
argument of perigee: 130.3940°
revolutions per day: 12.20108523
mean anomaly at epoch: 230.6770°
orbit number at epoch: 64792

The dashed part of the orbit path shows where the satellite is in the earth's shadow,  

DLR